Location: Bercimuel
(41.3983°N, 3.5711°W)
Time: 11:55:29
(UTC+00:00)

Cosmos 2237 - Pass Details

Date: 15 May 2026
Orbit: 845 x 858 km, 70.8° (Epoch: 7 June)

Event Time Altitude Azimuth Distance (km) Brightness Sun altitude
Rises 20:38:54 0° 336° (NNW) 3,439 8.6 -12.2°
Reaches altitude 10° 20:41:22 10° 338° (NNW) 2,499 7.7 -12.6°
Maximum altitude 20:47:08 81° 66° (ENE) 873 4.2 -13.4°
Enters shadow 20:51:29 18° 152° (SSE) 1,976 5.6 -14.0°
